TimeEDT,TemperatureF,Dew PointF,Humidity,Sea Level PressureIn,VisibilityMPH,Wind Direction,Wind SpeedMPH,Gust SpeedMPH,PrecipitationIn,Events,Conditions,WindDirDegrees,DateUTC
12:54 AM,51.1,43.0,74,30.10,10.0,ENE,12.7,-,N/A,,Overcast,70,2013-03-18 04:54:00
2:54 AM,48.0,41.0,77,30.10,9.0,ENE,10.4,-,N/A,,Overcast,70,2013-03-18 06:54:00
3:54 AM,46.9,39.9,77,30.09,10.0,ENE,8.1,-,N/A,,Overcast,60,2013-03-18 07:54:00
4:54 AM,46.9,39.9,77,30.09,10.0,ENE,5.8,-,N/A,,Overcast,60,2013-03-18 08:54:00
5:54 AM,46.9,39.9,77,30.10,9.0,ENE,5.8,-,N/A,,Overcast,60,2013-03-18 09:54:00
6:54 AM,46.0,39.9,79,30.12,8.0,NNE,9.2,-,N/A,,Overcast,30,2013-03-18 10:54:00
7:54 AM,45.0,42.1,90,30.14,7.0,NE,6.9,-,N/A,,Overcast,40,2013-03-18 11:54:00
8:18 AM,44.6,42.8,93,30.13,6.0,NE,6.9,-,N/A,,Overcast,50,2013-03-18 12:18:00
8:54 AM,45.0,42.1,90,30.14,6.0,NE,9.2,-,N/A,,Overcast,40,2013-03-18 12:54:00
9:35 AM,44.6,42.8,93,30.13,6.0,NE,10.4,-,N/A,,Overcast,40,2013-03-18 13:35:00
9:54 AM,45.0,42.1,90,30.13,7.0,ENE,10.4,-,N/A,,Overcast,70,2013-03-18 13:54:00
10:54 AM,45.0,42.1,90,30.12,7.0,East,8.1,-,N/A,,Overcast,80,2013-03-18 14:54:00
11:54 AM,46.9,43.0,86,30.12,7.0,NE,9.2,-,N/A,,Overcast,50,2013-03-18 15:54:00
12:24 PM,46.4,42.8,87,30.10,7.0,ENE,8.1,-,N/A,,Overcast,60,2013-03-18 16:24:00
12:54 PM,48.0,44.1,86,30.09,7.0,ENE,5.8,-,N/A,,Overcast,60,2013-03-18 16:54:00
1:10 PM,48.2,44.6,87,30.08,7.0,ENE,6.9,-,N/A,,Overcast,60,2013-03-18 17:10:00
1:54 PM,50.0,45.0,83,30.07,6.0,Calm,Calm,-,N/A,,Haze,0,2013-03-18 17:54:00
2:54 PM,53.1,46.9,80,30.02,7.0,NE,5.8,-,N/A,,Overcast,50,2013-03-18 18:54:00
3:08 PM,53.6,46.4,77,30.00,7.0,ENE,6.9,-,N/A,,Overcast,70,2013-03-18 19:08:00
3:54 PM,55.0,46.9,74,29.99,8.0,East,5.8,-,N/A,,Overcast,80,2013-03-18 19:54:00
5:54 PM,57.0,48.9,74,29.94,9.0,East,4.6,-,N/A,,Overcast,100,2013-03-18 21:54:00
6:54 PM,57.0,48.9,74,29.93,9.0,NE,3.5,-,N/A,,Overcast,40,2013-03-18 22:54:00
7:54 PM,55.9,50.0,80,29.92,10.0,NE,3.5,-,N/A,,Overcast,40,2013-03-18 23:54:00
8:54 PM,55.9,48.9,77,29.90,10.0,ENE,3.5,-,N/A,,Overcast,70,2013-03-19 00:54:00
9:42 PM,55.4,48.2,77,29.92,10.0,North,11.5,-,N/A,,Overcast,350,2013-03-19 01:42:00
9:54 PM,54.0,48.0,80,29.92,10.0,North,9.2,-,N/A,,Overcast,10,2013-03-19 01:54:00
10:54 PM,52.0,46.0,80,29.94,10.0,North,11.5,-,N/A,,Overcast,360,2013-03-19 02:54:00
11:33 PM,48.2,44.6,87,29.98,1.8,NW,15.0,28.8,0.08,Rain,Heavy Rain,320,2013-03-19 03:33:00
11:39 PM,46.4,44.6,93,29.96,3.0,North,11.5,23.0,0.08,Rain,Light Rain,350,2013-03-19 03:39:00
11:54 PM,46.0,45.0,96,29.95,3.0,NNW,3.5,-,0.13,Rain,Rain,340,2013-03-19 03:54:00